Home > Weather > Kitakyushu > Past weeks

Flag for Japan Weather for the Past 2 Weeks in Kitakyushu, Japan

Now
59 °F

Passing clouds.


Feels Like: 57 °F
Forecast: 52 / 69 °F
Wind: 9 mph from North

Location: Kitakyushu Airport

Current Time: Apr 29, 2016 at 9:35:51 AM

Latest Report: Apr 29, 2016 at 8:00 AM


Visibility: N/A

Pressure: 29.86 "Hg

Humidity: 68%

Dew Point: 48 °F

Location of KitakyushuLocation

Historic Weather in Kitakyushu — Graph

°F

Kitakyushu Temperature Yesterday

Maximum temperature yesterday: 63 °F (at 5:00 AM)
Minimum temperature yesterday: 57 °F (at 8:00 PM)
Average temperature yesterday: 60 °F

High & Low Weather Summary for the Past Weeks

 TemperatureHumidityPressure
High72 °F (Apr 17, 4:00 PM)100% (Apr 15, 2:00 AM)30.24 "Hg (Apr 15, 2:00 AM)
Low50 °F (Apr 20, 5:00 AM)27% (Apr 18, 4:00 PM)29.47 "Hg (Apr 27, 8:00 PM)
Average61 °F82%29.90 "Hg
* Reported Apr 14 8:00 AM — Apr 29 8:00 AM, Kitakyushu, Weather by CustomWeather, © 2016

Note: Actual official high and low records may vary slightly from our data, if they occured in-between our weather recording intervals... More about our weather records

Advertising

Kitakyushu Weather History for the Previous 24 Hours

Scroll right to see more
 ConditionsComfort  
Time TempWeatherWind HumidityBarometerVisibility
8:00 AM
Fri, Apr 29
59 °FPassing clouds.9 mph68%29.86 "HgN/A
7:00 AM57 °FPassing clouds.12 mph72%29.86 "HgN/A
6:00 AM54 °FScattered clouds.8 mph88%29.83 "HgN/A
5:00 AM55 °FPassing clouds.9 mph77%29.83 "HgN/A
4:00 AM54 °FPassing clouds.8 mph88%29.83 "HgN/A
3:00 AM55 °FPassing clouds.7 mph77%29.83 "HgN/A
2:00 AM55 °FPassing clouds.8 mph77%29.80 "HgN/A
1:00 AM55 °FPartly cloudy.8 mph82%29.83 "HgN/A
12:00 AM55 °FPassing clouds.9 mph82%29.80 "HgN/A
11:00 PM
Thu, Apr 28
57 °FPassing clouds.8 mph77%29.80 "HgN/A
10:00 PM57 °FPassing clouds.12 mph77%29.77 "HgN/A
9:00 PM57 °FPartly cloudy.17 mph77%29.77 "HgN/A
8:00 PM57 °FPartly cloudy.13 mph82%29.74 "HgN/A
7:00 PM59 °FPartly cloudy.16 mph82%29.71 "HgN/A
6:00 PM59 °FBroken clouds.16 mph82%29.68 "HgN/A
5:00 PM59 °FSprinkles. Broken clouds.16 mph88%29.65 "HgN/A
4:00 PM61 °FBroken clouds.20 mph83%29.65 "HgN/A
3:00 PM63 °FBroken clouds.20 mph77%29.62 "HgN/A
2:00 PM63 °FBroken clouds.17 mph77%29.59 "HgN/A
1:00 PM63 °FBroken clouds.15 mph83%29.59 "HgN/A
12:00 PM63 °FBroken clouds.15 mph77%29.59 "HgN/A
11:00 AM63 °FBroken clouds.10 mph83%29.56 "HgN/A
10:00 AM63 °FSprinkles. Partly sunny.12 mph88%29.56 "HgN/A
9:00 AM61 °FBroken clouds.13 mph94%29.53 "HgN/A
Weather by CustomWeather, © 2016

See weather overviewHow to use our weather pages